Regional Weather Roundup
Issued by NWS

Home | Current Version | Previous Version | Graphics & Text | Print | Product List | Glossary On
Versions: 1 2 3 4 5 6 7 8 9 10 11 12 13 14 15 16 17 18 19 20 21 22 23 24 25 26 27 28 29 30 31 32 33 34 35 36 37 38 39 40 41 42 43 44 45 46 47 48 49 50
000
ASUS43 KLMK 300802
RWRKY
KENTUCKY REGIONAL WEATHER ROUNDUP
NATIONAL WEATHER SERVICE LOUISVILLE KY
400 AM EDT SAT AUG 30 2014

NOTE "FAIR" INDICATES FEW OR NO CLOUDS BELOW 12,000 FEET
WITH NO SIGNIFICANT WEATHER AND/OR OBSTRUCTIONS TO VISIBILITY.

KYZ001>023-026-027-061>063-070>075-300900-
WESTERN AND SOUTH CENTRAL KENTUCKY

CITY           SKY/WX    TMP DP  RH WIND       PRES   REMARKS
PADUCAH        CLOUDY    75  68  78 SW3       29.98S
HENDERSON      PTCLDY    73  64  73 S5        29.99S
OWENSBORO      NOT AVBL
HOPKINSVILLE   PTCLDY    76  64  67 S3        30.01S
BOWLING GREEN  PTCLDY    69  65  86 NE3       30.03F
GLASGOW        PTCLDY    71  63  76 CALM      30.04F
$$

KYZ024-025-028>034-038-045-046-053-300900-
NORTH CENTRAL KENTUCKY

CITY           SKY/WX    TMP DP  RH WIND       PRES   REMARKS
LOUISVILLE/SDF PTCLDY    73  65  75 SE7       30.02S
LOUISVILLE/LOU CLEAR     73  64  73 SE3       30.03S
FORT KNOX      CLEAR     70  65  82 S6        30.02S
$$

KYZ035>037-039>044-047>052-055>060-089>105-300900-
NORTHEAST KENTUCKY

CITY           SKY/WX    TMP DP  RH WIND       PRES   REMARKS
LEXINGTON      MOCLDY    74  69  85 SE7       30.07F
COVINGTON      CLEAR     71  67  87 S6        30.04S
FRANKFORT      PTCLDY    69  66  90 CALM      30.04F
$$

KYZ054-064>069-076>088-106>120-300900-
SOUTHEAST KENTUCKY

CITY           SKY/WX    TMP DP  RH WIND       PRES   REMARKS
JACKSON        PTCLDY    72  69  90 CALM      30.13R
LONDON         CLEAR     70  67  90 CALM      30.12F
SOMERSET       CLEAR     68  68 100 SE3       30.10F
MIDDLESBORO    CLEAR     66  65  96 CALM      30.15F
MONTICELLO     SUNNY     69  66  90 S5        30.10F
$$



USA.gov is the U.S. government's official web portal to all federal, state and local government web resources and services.